QPF
0.06 0.06 0.07 0.05 0.05 0.05 0.05 0.05 0.05 0.05 0.05 0.05 0.04 0.03 0.03 0.05 0.05 0.05 0.06 0.06 0.04 0.05 0.05 0.05 0.04 0.03 0.03 0.02 0.02 0.02 0.03 0.03 0.02 0.02 0.03 0.02 0.02 0.01 0.01 0.02 0.02 0.02 0.01
0.05 0.04 0.05 0.05 0.05 0.04 0.04 0.05 0.06 0.06 0.05 0.04 0.04 0.02 0.02 0.05 0.06 0.05 0.04 0.04 0.05 0.05 0.05 0.05 0.04 0.03 0.03 0.03 0.03 0.02 0.02 0.02 0.02 0.03 0.02 0.02 0.02 0.02 0.03 0.03 0.03 0.03 0.03
0.04 0.03 0.03 0.04 0.05 0.06 0.04 0.04 0.05 0.06 0.05 0.04 0.04 0.03 0.02 0.03 0.04 0.03 0.04 0.03 0.03 0.04 0.05 0.04 0.05 0.05 0.05 0.04 0.03 0.03 0.02 0.02 0.03 0.02 0.02 0.02 0.02 0.02 0.02 0.03 0.03 0.03 0.03
0.03 0.02 0.02 0.04 0.04 0.04 0.05 0.05 0.05 0.04 0.04 0.06 0.05 0.05 0.04 0.04 0.02 0.02 0.03 0.03 0.03 0.03 0.05 0.04 0.04 0.05 0.06 0.07 0.06 0.05 0.05 0.04 0.03 0.02 0.02 0.02 0.02 0.02 0.02 0.03 0.03 0.03 0.03
0.02 0.02 0.02 0.03 0.03 0.03 0.04 0.04 0.05 0.04 0.04 0.06 0.06 0.06 0.06 0.06 0.05 0.04 0.04 0.05 0.05 0.05 0.08 0.07 0.06 0.07 0.07 0.07 0.08 0.09 0.07 0.05 0.04 0.03 0.03 0.03 0.03 0.03 0.02 0.02 0.03 0.04 0.04
0.02 0.01 0.02 0.02 0.02 0.03 0.03 0.03 0.03 0.03 0.04 0.05 0.05 0.06 0.08 0.07 0.08 0.09 0.08 0.08 0.08 0.09 0.09 0.09 0.06 0.04 0.05 0.07 0.08 0.08 0.08 0.09 0.08 0.07 0.06 0.06 0.07 0.06 0.04 0.03 0.03 0.04 0.04
0.04 0.03 0.03 0.02 0.03 0.03 0.04 0.04 0.02 0.03 0.03 0.03 0.06 0.08 0.08 0.09 0.08 0.11 0.10 0.11 0.11 0.11 0.10 0.07 0.07 0.06 0.05 0.05 0.06 0.06 0.08 0.09 0.10 0.10 0.09 0.08 0.08 0.06 0.04 0.03 0.03 0.05 0.05
0.05 0.04 0.03 0.03 0.03 0.03 0.04 0.04 0.03 0.03 0.03 0.03 0.04 0.05 0.07 0.09 0.08 0.10 0.13 0.17 0.15 0.12 0.10 0.10 0.11 0.10 0.08 0.06 0.05 0.05 0.06 0.09 0.11 0.12 0.11 0.11 0.09 0.08 0.06 0.05 0.04 0.05 0.05
0.05 0.06 0.04 0.03 0.03 0.03 0.04 0.05 0.04 0.03 0.04 0.04 0.03 0.05 0.06 0.07 0.06 0.11 0.13 0.15 0.14 0.13 0.11 0.11 0.10 0.11 0.09 0.09 0.08 0.07 0.06 0.07 0.10 0.14 0.14 0.14 0.12 0.10 0.08 0.09 0.08 0.06 0.05
0.02 0.03 0.03 0.03 0.03 0.03 0.04 0.06 0.06 0.05 0.05 0.05 0.07 0.07 0.08 0.07 0.06 0.05 0.07 0.10 0.09 0.09 0.09 0.09 0.11 0.12 0.11 0.11 0.10 0.09 0.08 0.07 0.11 0.13 0.12 0.12 0.09 0.07 0.07 0.08 0.09 0.07 0.06
0.02 0.02 0.02 0.02 0.02 0.04 0.04 0.08 0.08 0.06 0.05 0.06 0.08 0.09 0.07 0.06 0.05 0.04 0.04 0.05 0.06 0.06 0.06 0.08 0.12 0.13 0.09 0.08 0.09 0.08 0.11 0.11 0.09 0.07 0.07 0.07 0.07 0.07 0.07 0.08 0.08 0.10 0.10
0.02 0.02 0.01 0.02 0.02 0.03 0.04 0.05 0.06 0.04 0.05 0.05 0.06 0.06 0.05 0.04 0.04 0.04 0.05 0.04 0.04 0.05 0.06 0.06 0.05 0.05 0.04 0.05 0.06 0.09 0.11 0.11 0.09 0.08 0.05 0.04 0.04 0.04 0.07 0.08 0.10 0.13 0.17
0.02 0.02 0.02 0.01 0.01 0.02 0.02 0.03 0.04 0.04 0.05 0.04 0.04 0.04 0.04 0.04 0.05 0.05 0.05 0.04 0.04 0.05 0.06 0.05 0.04 0.05 0.05 0.05 0.06 0.06 0.08 0.11 0.08 0.08 0.06 0.05 0.04 0.04 0.05 0.08 0.11 0.15 0.20
0.02 0.02 0.02 0.02 0.02 0.02 0.02 0.04 0.04 0.03 0.03 0.03 0.04 0.04 0.05 0.07 0.05 0.04 0.05 0.04 0.03 0.03 0.04 0.04 0.04 0.04 0.03 0.03 0.04 0.05 0.07 0.09 0.11 0.11 0.08 0.05 0.03 0.03 0.03 0.05 0.07 0.10 0.12
0.02 0.03 0.03 0.03 0.02 0.02 0.04 0.05 0.04 0.03 0.03 0.04 0.05 0.04 0.03 0.05 0.05 0.05 0.05 0.04 0.03 0.02 0.03 0.03 0.03 0.02 0.02 0.02 0.02 0.03 0.05 0.07 0.08 0.06 0.04 0.03 0.03 0.03 0.03 0.04 0.05 0.06 0.06
0.02 0.03 0.03 0.03 0.02 0.03 0.04 0.04 0.03 0.02 0.02 0.02 0.02 0.03 0.03 0.02 0.03 0.05 0.05 0.05 0.03 0.02 0.03 0.03 0.02 0.01 0.01 0.01 0.01 0.01 0.01 0.03 0.04 0.04 0.04 0.04 0.04 0.03 0.03 0.04 0.04 0.04 0.04
0.02 0.02 0.02 0.02 0.02 0.03 0.04 0.03 0.02 0.01 0.01 0.01 0.01 0.01 0.02 0.02 0.02 0.03 0.05 0.06 0.05 0.04 0.03 0.02 0.01 0.01 0.00 0.00 0.01 0.00 0.00 0.01 0.02 0.04 0.04 0.05 0.04 0.03 0.03 0.03 0.03 0.03 0.03
0.01 0.01 0.01 0.02 0.03 0.03 0.03 0.02 0.01 0.01 0.01 0.01 0.01 0.02 0.02 0.01 0.02 0.02 0.03 0.05 0.04 0.03 0.02 0.01 0.01 0.01 0.01 0.01 0.00 0.01 0.01 0.01 0.01 0.02 0.04 0.05 0.05 0.05 0.05 0.05 0.05 0.04 0.04
0.01 0.00 0.00 0.01 0.03 0.05 0.04 0.02 0.01 0.01 0.01 0.01 0.02 0.03 0.02 0.01 0.01 0.02 0.02 0.03 0.03 0.02 0.02 0.01 0.01 0.01 0.02 0.02 0.01 0.01 0.02 0.01 0.01 0.02 0.04 0.05 0.06 0.06 0.05 0.04 0.03 0.03 0.02
0.00 0.00 0.00 0.00 0.01 0.02 0.01 0.01 0.01 0.01 0.01 0.01 0.01 0.01 0.01 0.02 0.02 0.02 0.02 0.03 0.04 0.03 0.02 0.02 0.01 0.01 0.02 0.02 0.02 0.02 0.01 0.01 0.01 0.02 0.05 0.06 0.06 0.06 0.05 0.04 0.03 0.02 0.02
0.00 0.00 0.00 0.00 0.01 0.01 0.02 0.02 0.02 0.02 0.01 0.01 0.00 0.01 0.01 0.02 0.03 0.02 0.02 0.02 0.03 0.03 0.02 0.02 0.02 0.02 0.01 0.01 0.01 0.01 0.01 0.01 0.00 0.01 0.02 0.02 0.03 0.03 0.03 0.03 0.02 0.02 0.01
0.01 0.00 0.00 0.01 0.01 0.01 0.02 0.02 0.02 0.01 0.01 0.01 0.01 0.01 0.01 0.01 0.01 0.02 0.02 0.02 0.02 0.02 0.02 0.01 0.01 0.01 0.01 0.01 0.01 0.01 0.02 0.01 0.01 0.02 0.03 0.04 0.05 0.05 0.04 0.03 0.02 0.02 0.01
0.01 0.00 0.00 0.00 0.01 0.01 0.01 0.01 0.00 0.01 0.00 0.01 0.01 0.02 0.02 0.01 0.01 0.01 0.01 0.02 0.03 0.03 0.02 0.02 0.02 0.01 0.01 0.01 0.01 0.01 0.02 0.01 0.01 0.02 0.04 0.06 0.06 0.04 0.03 0.02 0.01 0.01 0.01
0.02 0.01 0.01 0.00 0.01 0.01 0.00 0.00 0.00 0.00 0.00 0.00 0.01 0.01 0.01 0.01 0.00 0.01 0.01 0.01 0.02 0.03 0.02 0.02 0.01 0.01 0.01 0.01 0.01 0.01 0.01 0.02 0.02 0.03 0.04 0.04 0.03 0.02 0.01 0.01 0.00 0.00 0.01
0.04 0.02 0.01 0.01 0.01 0.01 0.01 0.01 0.00 0.00 0.00 0.00 0.00 0.00 0.01 0.01 0.01 0.01 0.01 0.01 0.02 0.02 0.02 0.02 0.01 0.01 0.00 0.01 0.01 0.01 0.01 0.02 0.02 0.04 0.06 0.04 0.03 0.01 0.00 0.00 0.00 0.00 0.00
0.05 0.03 0.03 0.02 0.02 0.02 0.01 0.01 0.01 0.01 0.01 0.01 0.01 0.01 0.01 0.01 0.01 0.01 0.00 0.00 0.01 0.02 0.02 0.02 0.02 0.01 0.01 0.01 0.01 0.01 0.01 0.01 0.01 0.02 0.02 0.02 0.01 0.01 0.01 0.00 0.00 0.01 0.01
MSLP
1016.97 1017.07 1017.09 1017.03 1016.94 1016.84 1016.74 1016.68 1016.65 1016.66 1016.70 1016.75 1016.82 1016.89 1016.97 1017.07 1017.17 1017.30 1017.43 1017.58 1017.72 1017.87 1018.02 1018.15 1018.28 1018.39 1018.50 1018.58 1018.66 1018.72 1018.78 1018.84 1018.90 1018.99 1019.10 1019.23 1019.37 1019.52 1019.63 1019.72 1019.76 1019.77 1019.74
1016.84 1016.93 1016.95 1016.92 1016.85 1016.78 1016.71 1016.66 1016.64 1016.66 1016.69 1016.74 1016.80 1016.85 1016.91 1016.97 1017.04 1017.12 1017.21 1017.32 1017.45 1017.60 1017.77 1017.93 1018.09 1018.24 1018.35 1018.44 1018.49 1018.52 1018.54 1018.55 1018.58 1018.65 1018.74 1018.87 1019.02 1019.17 1019.30 1019.39 1019.44 1019.46 1019.45
1016.62 1016.70 1016.75 1016.76 1016.75 1016.73 1016.71 1016.70 1016.71 1016.73 1016.76 1016.80 1016.84 1016.87 1016.89 1016.91 1016.93 1016.95 1016.99 1017.06 1017.16 1017.30 1017.46 1017.65 1017.84 1018.01 1018.14 1018.24 1018.28 1018.28 1018.26 1018.23 1018.21 1018.24 1018.31 1018.42 1018.56 1018.71 1018.85 1018.96 1019.04 1019.07 1019.10
1016.33 1016.42 1016.51 1016.58 1016.65 1016.70 1016.75 1016.79 1016.82 1016.85 1016.88 1016.90 1016.92 1016.92 1016.91 1016.88 1016.85 1016.82 1016.80 1016.82 1016.87 1016.98 1017.13 1017.32 1017.52 1017.71 1017.87 1017.97 1018.01 1018.00 1017.95 1017.88 1017.83 1017.81 1017.84 1017.92 1018.05 1018.20 1018.35 1018.48 1018.58 1018.66 1018.72
1016.01 1016.11 1016.23 1016.38 1016.53 1016.67 1016.78 1016.87 1016.94 1016.98 1017.00 1017.01 1017.00 1016.98 1016.94 1016.88 1016.81 1016.72 1016.65 1016.61 1016.61 1016.67 1016.79 1016.95 1017.15 1017.35 1017.53 1017.65 1017.70 1017.69 1017.63 1017.54 1017.46 1017.40 1017.40 1017.45 1017.56 1017.69 1017.85 1018.00 1018.13 1018.25 1018.36
1015.68 1015.78 1015.94 1016.15 1016.37 1016.58 1016.76 1016.89 1016.97 1017.02 1017.04 1017.05 1017.04 1017.01 1016.96 1016.89 1016.79 1016.68 1016.56 1016.46 1016.39 1016.39 1016.45 1016.58 1016.76 1016.96 1017.15 1017.29 1017.37 1017.39 1017.34 1017.25 1017.15 1017.08 1017.04 1017.07 1017.14 1017.27 1017.42 1017.58 1017.74 1017.89 1018.04
1015.36 1015.45 1015.63 1015.88 1016.15 1016.40 1016.61 1016.77 1016.87 1016.93 1016.96 1016.97 1016.97 1016.97 1016.94 1016.89 1016.80 1016.67 1016.52 1016.36 1016.24 1016.16 1016.16 1016.24 1016.39 1016.58 1016.77 1016.95 1017.07 1017.12 1017.11 1017.04 1016.95 1016.87 1016.81 1016.81 1016.85 1016.95 1017.09 1017.24 1017.41 1017.59 1017.77
1015.07 1015.13 1015.30 1015.56 1015.84 1016.11 1016.33 1016.49 1016.60 1016.66 1016.70 1016.74 1016.78 1016.83 1016.85 1016.85 1016.79 1016.68 1016.51 1016.33 1016.15 1016.01 1015.94 1015.96 1016.06 1016.24 1016.44 1016.65 1016.81 1016.92 1016.95 1016.92 1016.86 1016.78 1016.71 1016.68 1016.70 1016.76 1016.87 1017.01 1017.17 1017.35 1017.55
1014.83 1014.84 1014.98 1015.20 1015.46 1015.70 1015.91 1016.06 1016.16 1016.22 1016.29 1016.37 1016.47 1016.58 1016.69 1016.76 1016.76 1016.69 1016.54 1016.33 1016.11 1015.92 1015.79 1015.76 1015.82 1015.98 1016.19 1016.42 1016.63 1016.79 1016.88 1016.90 1016.87 1016.80 1016.73 1016.68 1016.65 1016.68 1016.75 1016.85 1017.00 1017.17 1017.37
1014.64 1014.60 1014.68 1014.84 1015.04 1015.23 1015.39 1015.51 1015.59 1015.67 1015.76 1015.89 1016.05 1016.25 1016.45 1016.60 1016.68 1016.67 1016.55 1016.36 1016.12 1015.90 1015.73 1015.65 1015.68 1015.82 1016.04 1016.29 1016.54 1016.75 1016.89 1016.96 1016.95 1016.90 1016.82 1016.75 1016.69 1016.67 1016.70 1016.76 1016.87 1017.03 1017.22
1014.49 1014.39 1014.40 1014.49 1014.62 1014.75 1014.85 1014.93 1014.99 1015.06 1015.17 1015.34 1015.58 1015.85 1016.13 1016.38 1016.54 1016.59 1016.53 1016.36 1016.14 1015.91 1015.73 1015.63 1015.65 1015.77 1015.99 1016.26 1016.54 1016.78 1016.96 1017.06 1017.08 1017.03 1016.95 1016.86 1016.77 1016.72 1016.70 1016.72 1016.80 1016.93 1017.12
1014.36 1014.21 1014.16 1014.18 1014.23 1014.29 1014.34 1014.38 1014.41 1014.48 1014.60 1014.80 1015.08 1015.41 1015.76 1016.07 1016.31 1016.43 1016.43 1016.32 1016.14 1015.93 1015.77 1015.68 1015.70 1015.83 1016.05 1016.33 1016.61 1016.87 1017.07 1017.18 1017.21 1017.17 1017.09 1016.98 1016.88 1016.80 1016.75 1016.74 1016.79 1016.90 1017.07
1014.21 1014.03 1013.94 1013.90 1013.90 1013.91 1013.92 1013.91 1013.92 1013.97 1014.09 1014.30 1014.59 1014.95 1015.33 1015.69 1015.99 1016.17 1016.24 1016.19 1016.08 1015.94 1015.82 1015.77 1015.81 1015.96 1016.19 1016.46 1016.75 1017.00 1017.20 1017.31 1017.35 1017.31 1017.23 1017.12 1017.01 1016.92 1016.86 1016.84 1016.87 1016.97 1017.13
1014.01 1013.83 1013.72 1013.66 1013.64 1013.61 1013.58 1013.55 1013.54 1013.57 1013.66 1013.85 1014.13 1014.48 1014.87 1015.24 1015.57 1015.80 1015.94 1015.97 1015.95 1015.89 1015.85 1015.87 1015.96 1016.14 1016.38 1016.65 1016.93 1017.17 1017.35 1017.45 1017.48 1017.45 1017.38 1017.28 1017.19 1017.11 1017.06 1017.04 1017.07 1017.16 1017.31
1013.73 1013.58 1013.49 1013.44 1013.41 1013.38 1013.35 1013.30 1013.26 1013.26 1013.33 1013.47 1013.71 1014.02 1014.37 1014.74 1015.07 1015.34 1015.54 1015.66 1015.73 1015.79 1015.85 1015.95 1016.11 1016.33 1016.59 1016.86 1017.12 1017.34 1017.50 1017.60 1017.62 1017.60 1017.55 1017.49 1017.43 1017.38 1017.36 1017.36 1017.41 1017.49 1017.63
1013.39 1013.29 1013.24 1013.22 1013.21 1013.20 1013.17 1013.12 1013.07 1013.04 1013.06 1013.15 1013.32 1013.57 1013.87 1014.20 1014.52 1014.81 1015.06 1015.27 1015.44 1015.61 1015.78 1015.98 1016.22 1016.49 1016.77 1017.05 1017.30 1017.50 1017.65 1017.73 1017.77 1017.77 1017.75 1017.73 1017.72 1017.72 1017.75 1017.79 1017.85 1017.95 1018.08
1012.98 1012.95 1012.95 1012.98 1013.01 1013.03 1013.01 1012.97 1012.92 1012.86 1012.84 1012.87 1012.97 1013.14 1013.38 1013.65 1013.95 1014.25 1014.54 1014.82 1015.08 1015.35 1015.63 1015.92 1016.24 1016.56 1016.87 1017.16 1017.41 1017.60 1017.74 1017.83 1017.89 1017.92 1017.95 1017.99 1018.04 1018.11 1018.19 1018.27 1018.36 1018.47 1018.59
1012.54 1012.56 1012.61 1012.69 1012.77 1012.82 1012.84 1012.81 1012.76 1012.69 1012.63 1012.61 1012.65 1012.75 1012.91 1013.13 1013.40 1013.69 1014.00 1014.32 1014.66 1015.01 1015.37 1015.74 1016.12 1016.48 1016.83 1017.14 1017.39 1017.59 1017.74 1017.85 1017.94 1018.02 1018.11 1018.22 1018.34 1018.47 1018.60 1018.73 1018.85 1018.97 1019.09
1012.06 1012.12 1012.21 1012.34 1012.45 1012.55 1012.60 1012.60 1012.56 1012.48 1012.41 1012.35 1012.34 1012.38 1012.49 1012.66 1012.88 1013.15 1013.46 1013.80 1014.17 1014.57 1014.98 1015.41 1015.83 1016.23 1016.60 1016.93 1017.20 1017.42 1017.60 1017.74 1017.88 1018.01 1018.17 1018.34 1018.53 1018.72 1018.91 1019.08 1019.24 1019.37 1019.50
1011.54 1011.61 1011.74 1011.89 1012.05 1012.18 1012.26 1012.29 1012.27 1012.21 1012.14 1012.07 1012.03 1012.04 1012.10 1012.22 1012.40 1012.64 1012.93 1013.26 1013.63 1014.04 1014.46 1014.90 1015.34 1015.76 1016.15 1016.50 1016.80 1017.05 1017.26 1017.46 1017.64 1017.84 1018.05 1018.29 1018.54 1018.79 1019.03 1019.24 1019.43 1019.59 1019.74
1010.95 1011.02 1011.16 1011.33 1011.52 1011.68 1011.80 1011.87 1011.89 1011.86 1011.80 1011.74 1011.70 1011.69 1011.73 1011.82 1011.97 1012.16 1012.41 1012.70 1013.04 1013.41 1013.82 1014.24 1014.67 1015.09 1015.49 1015.85 1016.18 1016.47 1016.72 1016.97 1017.21 1017.47 1017.74 1018.02 1018.32 1018.62 1018.90 1019.16 1019.38 1019.58 1019.77
1010.24 1010.31 1010.45 1010.64 1010.85 1011.05 1011.21 1011.33 1011.39 1011.41 1011.39 1011.36 1011.34 1011.34 1011.37 1011.44 1011.55 1011.70 1011.90 1012.13 1012.41 1012.73 1013.08 1013.46 1013.86 1014.26 1014.65 1015.03 1015.37 1015.70 1016.00 1016.29 1016.58 1016.89 1017.20 1017.53 1017.87 1018.20 1018.52 1018.82 1019.09 1019.34 1019.58
1009.41 1009.46 1009.61 1009.82 1010.05 1010.29 1010.50 1010.67 1010.79 1010.86 1010.90 1010.92 1010.94 1010.97 1011.01 1011.07 1011.16 1011.27 1011.41 1011.58 1011.78 1012.03 1012.31 1012.63 1012.98 1013.34 1013.72 1014.09 1014.45 1014.80 1015.13 1015.46 1015.79 1016.13 1016.47 1016.83 1017.19 1017.55 1017.91 1018.25 1018.58 1018.89 1019.20
1008.46 1008.51 1008.66 1008.89 1009.16 1009.44 1009.70 1009.92 1010.10 1010.24 1010.35 1010.43 1010.51 1010.58 1010.65 1010.72 1010.79 1010.88 1010.97 1011.08 1011.21 1011.38 1011.58 1011.83 1012.12 1012.44 1012.78 1013.14 1013.49 1013.85 1014.20 1014.54 1014.88 1015.23 1015.58 1015.95 1016.33 1016.71 1017.10 1017.49 1017.88 1018.26 1018.65
1007.45 1007.50 1007.68 1007.94 1008.25 1008.57 1008.87 1009.15 1009.39 1009.59 1009.77 1009.92 1010.06 1010.18 1010.30 1010.40 1010.48 1010.55 1010.61 1010.68 1010.75 1010.85 1010.99 1011.16 1011.39 1011.65 1011.94 1012.26 1012.59 1012.93 1013.26 1013.59 1013.92 1014.25 1014.59 1014.95 1015.33 1015.72 1016.14 1016.58 1017.03 1017.49 1017.97
1006.48 1006.56 1006.77 1007.05 1007.39 1007.75 1008.09 1008.41 1008.71 1008.97 1009.21 1009.43 1009.63 1009.82 1009.99 1010.13 1010.25 1010.33 1010.39 1010.43 1010.46 1010.51 1010.58 1010.69 1010.85 1011.04 1011.28 1011.54 1011.82 1012.10 1012.38 1012.66 1012.95 1013.24 1013.55 1013.88 1014.24 1014.64 1015.08 1015.55 1016.06 1016.60 1017.15
Thickness
5751 5751 5751 5750 5749 5749 5749 5749 5748 5748 5748 5748 5747 5746 5746 5745 5744 5743 5742 5742 5741 5739 5738 5736 5735 5733 5731 5729 5728 5727 5725 5724 5722 5720 5719 5717 5715 5714 5713 5712 5710 5709 5708
5753 5752 5751 5751 5750 5750 5750 5749 5749 5748 5748 5748 5748 5747 5746 5745 5744 5743 5742 5741 5739 5738 5737 5736 5734 5733 5731 5730 5728 5727 5725 5724 5722 5720 5718 5717 5715 5714 5712 5711 5710 5709 5707
5754 5752 5751 5751 5751 5751 5750 5750 5749 5749 5748 5748 5747 5747 5746 5745 5743 5742 5741 5740 5739 5738 5737 5736 5734 5733 5731 5730 5728 5726 5725 5723 5722 5720 5718 5717 5715 5713 5712 5711 5709 5708 5707
5755 5754 5753 5752 5752 5751 5751 5750 5748 5747 5746 5746 5745 5746 5745 5744 5743 5741 5740 5739 5738 5737 5737 5735 5734 5733 5731 5729 5728 5726 5724 5723 5721 5720 5718 5717 5715 5713 5712 5710 5709 5707 5706
5756 5755 5754 5753 5752 5752 5750 5750 5748 5747 5745 5744 5744 5744 5744 5743 5742 5741 5739 5738 5737 5737 5736 5735 5733 5732 5730 5729 5727 5725 5724 5722 5721 5719 5718 5717 5715 5713 5712 5710 5708 5707 5705
5757 5756 5755 5754 5753 5752 5750 5749 5747 5747 5745 5744 5743 5742 5742 5742 5741 5739 5738 5738 5736 5736 5735 5733 5732 5730 5729 5727 5726 5725 5723 5722 5721 5720 5718 5717 5715 5714 5712 5710 5708 5706 5704
5758 5756 5755 5754 5753 5751 5749 5748 5747 5744 5742 5742 5738 5735 5737 5739 5738 5738 5738 5736 5735 5734 5732 5731 5729 5728 5726 5726 5725 5724 5723 5722 5721 5720 5718 5717 5715 5713 5712 5710 5707 5705 5704
5759 5757 5755 5754 5753 5751 5749 5748 5746 5743 5741 5741 5736 5730 5725 5727 5732 5736 5735 5734 5732 5731 5730 5728 5726 5725 5725 5724 5724 5723 5722 5721 5720 5719 5717 5716 5714 5712 5710 5708 5706 5704 5702
5760 5758 5756 5754 5753 5751 5748 5747 5746 5743 5739 5739 5739 5732 5723 5719 5722 5727 5730 5730 5729 5728 5727 5726 5724 5723 5722 5721 5720 5720 5720 5718 5717 5716 5715 5713 5711 5710 5708 5706 5704 5702 5700
5761 5759 5757 5755 5753 5751 5749 5748 5747 5744 5741 5737 5737 5736 5732 5728 5721 5718 5722 5725 5726 5725 5724 5723 5722 5720 5719 5718 5717 5717 5716 5714 5713 5712 5711 5710 5708 5707 5705 5704 5701 5699 5697
5761 5760 5758 5756 5754 5752 5750 5748 5746 5744 5742 5738 5736 5734 5731 5728 5726 5719 5715 5717 5719 5720 5720 5719 5719 5718 5716 5715 5714 5713 5712 5710 5709 5707 5706 5706 5705 5704 5702 5700 5698 5696 5694
5761 5760 5759 5757 5755 5752 5750 5748 5746 5744 5742 5740 5737 5735 5731 5727 5724 5721 5716 5714 5713 5714 5716 5716 5714 5714 5712 5711 5710 5709 5707 5706 5704 5702 5702 5702 5700 5699 5698 5696 5694 5692 5690
5759 5759 5759 5757 5754 5752 5751 5748 5746 5743 5741 5739 5736 5734 5732 5730 5727 5723 5718 5713 5710 5710 5710 5710 5710 5709 5708 5706 5705 5704 5703 5701 5700 5699 5697 5696 5695 5693 5692 5690 5689 5687 5685
5761 5761 5759 5757 5754 5752 5750 5747 5745 5742 5740 5738 5736 5733 5731 5730 5728 5725 5719 5713 5707 5704 5704 5703 5704 5704 5702 5701 5700 5698 5697 5696 5694 5693 5691 5690 5688 5687 5685 5683 5682 5680 5678
5763 5761 5759 5756 5754 5751 5748 5746 5743 5741 5738 5736 5734 5732 5730 5729 5727 5725 5722 5717 5709 5701 5698 5699 5698 5698 5697 5695 5694 5693 5691 5690 5688 5687 5685 5684 5682 5680 5678 5676 5674 5671 5669
5763 5760 5758 5755 5753 5750 5747 5744 5741 5739 5737 5734 5732 5730 5728 5726 5725 5722 5719 5716 5712 5706 5698 5697 5695 5694 5692 5691 5688 5687 5686 5684 5682 5681 5679 5677 5675 5673 5671 5668 5666 5663 5661
5762 5759 5756 5753 5751 5748 5745 5742 5739 5737 5734 5731 5730 5727 5725 5724 5721 5719 5716 5713 5709 5705 5697 5694 5692 5690 5687 5685 5682 5681 5679 5677 5675 5674 5672 5669 5667 5665 5663 5660 5658 5655 5653
5761 5758 5755 5751 5748 5745 5743 5739 5736 5734 5731 5728 5726 5724 5721 5720 5717 5715 5712 5709 5706 5703 5697 5689 5686 5684 5681 5679 5677 5674 5672 5670 5668 5666 5664 5662 5659 5657 5655 5652 5650 5647 5644
5759 5756 5752 5748 5745 5742 5739 5736 5733 5730 5727 5725 5722 5720 5717 5715 5712 5710 5708 5705 5702 5699 5694 5688 5682 5679 5676 5674 5670 5668 5666 5663 5661 5659 5656 5654 5652 5649 5647 5644 5641 5638 5636
5757 5753 5750 5746 5743 5740 5736 5733 5730 5727 5724 5721 5719 5716 5714 5711 5708 5706 5703 5700 5697 5693 5689 5684 5678 5674 5670 5668 5664 5660 5657 5655 5653 5651 5649 5646 5644 5641 5638 5636 5634 5630 5627
5755 5751 5747 5743 5740 5736 5733 5730 5727 5724 5720 5717 5715 5712 5710 5708 5705 5702 5699 5695 5692 5687 5683 5678 5672 5668 5664 5661 5658 5655 5651 5648 5645 5644 5641 5638 5635 5633 5631 5628 5625 5622 5619
5751 5748 5744 5740 5736 5734 5731 5728 5724 5720 5717 5713 5710 5707 5705 5703 5701 5698 5695 5692 5688 5683 5677 5672 5668 5664 5660 5657 5653 5650 5644 5640 5637 5636 5633 5630 5627 5624 5622 5620 5617 5614 5612
5748 5744 5740 5736 5732 5730 5727 5724 5721 5717 5713 5709 5706 5703 5701 5698 5695 5692 5689 5686 5682 5679 5676 5670 5664 5660 5656 5653 5649 5644 5640 5636 5633 5631 5626 5622 5620 5617 5616 5613 5610 5607 5604
5744 5740 5736 5733 5729 5726 5723 5719 5716 5712 5708 5704 5701 5698 5694 5691 5689 5685 5681 5677 5674 5671 5669 5665 5661 5658 5654 5650 5645 5641 5636 5632 5628 5625 5621 5615 5612 5610 5609 5607 5604 5601 5597
5741 5737 5733 5729 5724 5721 5718 5714 5710 5705 5701 5698 5695 5692 5689 5685 5683 5679 5674 5669 5666 5664 5662 5659 5656 5653 5649 5645 5640 5634 5628 5623 5618 5616 5614 5610 5606 5602 5601 5599 5597 5594 5590
5737 5733 5728 5724 5720 5716 5713 5709 5705 5700 5694 5690 5687 5685 5683 5679 5676 5672 5667 5663 5658 5655 5654 5652 5648 5645 5642 5638 5634 5629 5624 5617 5612 5609 5608 5603 5599 5595 5591 5591 5590 5587 5583